Miscellaneous Local Product
Issued by NWS North Platte, NE

Home | Current Version | Previous Version | Text Only | Print | Product List | Glossary On
Versions: 1 2 3 4 5 6 7 8 9 10 11 12 13 14 15 16 17 18 19 20 21 22 23 24 25 26 27 28 29 30 31 32 33 34 35 36 37 38 39 40 41 42 43 44 45 46 47 48 49 50
000
AXUS43 KLBF 030710
MISLBF


WESTERN AND NORTH CENTRAL NEBRASKA HOURLY WEATHER ROUNDUP
NATIONAL WEATHER SERVICE NORTH PLATTE NE
200 AM CDT MON AUG 03 2015

***STATIONS NOT REPORTING VARIABLES SUCH AS SKY/WEATHER OR
PRESSURE ARE PROVIDED BY THE NEBRASKA DEPARTMENT OF
ROADS...RAWS...AND APRS NETWORKS...AND ARE NOT UNDER
NATIONAL WEATHER SERVICE QUALITY CONTROL***

...OBSERVATIONS IN AND NEAR THE EASTERN PANHANDLE OF NEBRASKA...

CITY           SKY/WX    TMP DP  RH WIND       PRES   REMARKS
PINE RIDGE     CLEAR     63  56  78 NE6       30.03S
CHADRON        CLEAR     63  57  81 NE8       30.00F
ALLIANCE       PTCLDY    61  55  81 E6        30.02S
SIDNEY         MOCLDY    66  55  67 S7        30.04S
BIG SPRINGS      N/A     70  58  66 CALM        N/A
$$

...OBSERVATIONS IN NORTH CENTRAL NEBRASKA...

CITY           SKY/WX    TMP DP  RH WIND       PRES   REMARKS
THEDFORD       PTCLDY    66  61  85 CALM      30.02S
AINSWORTH      CLEAR     65  62  91 CALM      30.01S
O`NEILL        CLEAR     65  61  85 NE6       29.98S
ORD            CLEAR     68  63  84 CALM      29.95R
BROKEN BOW     PTCLDY    67  61  81 N5        29.98S
SPRINGVIEW       N/A     62  59  91 CALM        N/A
CHAMBERS         N/A     66  59  78 CALM        N/A
EWING            N/A     64  61  89 CALM        N/A
$$

...OBSERVATIONS IN SOUTHWEST NEBRASKA AND FAR NORTHEAST COLORADO...

CITY           SKY/WX    TMP DP  RH WIND       PRES   REMARKS
WRAY           FAIR      72  56  57 SW3       30.01F
HOLYOKE        FAIR      66  55  68 SW6       30.01S
IMPERIAL       PTCLDY    69  54  58 SW6       29.98S
OGALLALA       PTCLDY    70  57  63 CALM      29.99S
NORTH PLATTE   PTCLDY    63  58  83 NE8       29.98R
MCCOOK         PTCLDY    66  58  75 W7        29.93F
LEXINGTON      PTCLDY    62  57  86 E3        29.98R
PAXTON           N/A     64  58  80 CALM        N/A
BRADY            N/A     63  58  83 CALM        N/A
CALLAWAY         N/A     62  58  88 E5          N/A
$$

...NORTH PLATTE AREA...

CITY           SKY/WX    TMP DP  RH WIND       PRES   REMARKS
AIRPORT        PTCLDY    63  58  83 NE8       29.98R
DOWNTOWN         N/A     67  58  72 CALM        N/A
SANDRIDGE        N/A     66  57  74 CALM        N/A
HILLCREST        N/A     66  58  75 NE9         N/A
$$

...SOME WEATHER OBSERVATIONS FROM AROUND THE REGION...

CITY           SKY/WX    TMP DP  RH WIND       PRES   REMARKS
DENVER         CLOUDY    67  48  50 SE6       30.10S
LARAMIE        CLOUDY    60  45  57 S5        30.21S
CHEYENNE       CLOUDY    65  50  58 CALM      30.14S
SCOTTSBLUFF    CLEAR     66  56  70 E9        30.00S
RAPID CITY     CLEAR     63  52  67 E3        30.04S
PIERRE         CLEAR     60  53  77 E6        29.96S
WINNER         FAIR      69  58  67 E5        29.98S
SIOUX FALLS    CLEAR     59  57  93 CALM      29.95S
OMAHA          PTCLDY    73  71  93 N7        29.89R
GRAND ISLAND   PTCLDY    65  63  93 NE3       29.95R
KANSAS CITY    PTCLDY    74  68  81 SE5       29.91R
WICHITA        MOCLDY    73  66  78 S6        29.92F
HAYS           PTCLDY    75  63  64 S5        29.93R
LIBERAL        MOCLDY    73  63  68 S9        29.98F
GOODLAND       PTCLDY    69  57  65 S13       30.00F
$$



USA.gov is the U.S. government's official web portal to all federal, state and local government web resources and services.